Time,TemperatureF,DewpointF,PressureIn,WindDirection,WindDirectionDegrees,WindSpeedMPH,WindSpeedGustMPH,Humidity,HourlyPrecipIn,Conditions,Clouds,dailyrainin,SoftwareType,DateUTC
2013-09-13 00:00:00,60.3,57.3,29.97,NNE,15,0.0,7.0,90,0.00,RA,SKC,0.00,WeatherDisplay:10.37,2013-09-13 04:00:00,
2013-09-13 00:10:00,60.1,56.8,29.98,North,10,2.0,8.0,89,0.00,CLR,SKC,0.00,WeatherDisplay:10.37,2013-09-13 04:10:00,
2013-09-13 00:20:00,59.6,56.4,29.98,North,7,0.0,0.0,89,0.00,CLR,SKC,0.00,WeatherDisplay:10.37,2013-09-13 04:20:00,
2013-09-13 00:30:00,59.5,56.5,29.98,North,7,0.0,0.0,90,0.00,CLR,SKC,0.00,WeatherDisplay:10.37,2013-09-13 04:30:00,
2013-09-13 00:40:00,59.1,56.2,29.98,North,6,1.0,7.0,90,0.00,CLR,SKC,0.00,WeatherDisplay:10.37,2013-09-13 04:40:00,
2013-09-13 00:50:00,59.1,56.2,29.98,North,4,0.0,0.0,90,0.00,CLR,SKC,0.00,WeatherDisplay:10.37,2013-09-13 04:50:00,
2013-09-13 01:00:00,59.2,56.0,29.99,NNE,23,0.0,10.0,89,0.00,CLR,SKC,0.00,WeatherDisplay:10.37,2013-09-13 05:00:00,
2013-09-13 01:10:00,58.7,55.8,29.99,NNE,31,0.0,6.0,90,0.00,CLR,SKC,0.00,WeatherDisplay:10.37,2013-09-13 05:10:00,
2013-09-13 01:20:00,58.2,55.3,29.99,North,4,0.0,7.0,90,0.00,CLR,SKC,0.00,WeatherDisplay:10.37,2013-09-13 05:20:00,
2013-09-13 01:30:00,57.3,54.4,29.99,North,5,2.0,9.0,90,0.00,CLR,SKC,0.00,WeatherDisplay:10.37,2013-09-13 05:30:00,
2013-09-13 01:40:00,58.5,55.6,29.99,North,360,1.0,8.0,90,0.00,CLR,SKC,0.00,WeatherDisplay:10.37,2013-09-13 05:40:00,
2013-09-13 01:50:00,57.6,54.7,29.99,North,1,0.0,8.0,90,0.00,CLR,SKC,0.00,WeatherDisplay:10.37,2013-09-13 05:50:00,
2013-09-13 02:00:00,57.3,54.4,30.00,North,5,1.0,8.0,90,0.00,CLR,SKC,0.00,WeatherDisplay:10.37,2013-09-13 06:00:00,
2013-09-13 02:10:00,57.2,54.0,30.00,North,5,0.0,8.0,89,0.00,CLR,SKC,0.00,WeatherDisplay:10.37,2013-09-13 06:10:00,
2013-09-13 02:20:00,56.8,53.6,30.00,North,353,1.0,9.0,89,0.00,CLR,SKC,0.00,WeatherDisplay:10.37,2013-09-13 06:20:00,
2013-09-13 02:30:00,56.4,53.2,30.00,North,357,1.0,8.0,89,0.00,CLR,SKC,0.00,WeatherDisplay:10.37,2013-09-13 06:30:00,
2013-09-13 02:40:00,55.9,53.0,30.00,NNW,348,2.0,9.0,90,0.00,CLR,SKC,0.00,WeatherDisplay:10.37,2013-09-13 06:40:00,
2013-09-13 02:50:00,55.5,51.7,30.00,North,3,5.0,8.0,87,0.00,CLR,SKC,0.00,WeatherDisplay:10.37,2013-09-13 06:50:00,
2013-09-13 03:00:00,55.3,51.2,30.00,North,354,1.0,7.0,86,0.00,CLR,SKC,0.00,WeatherDisplay:10.37,2013-09-13 07:00:00,
2013-09-13 03:10:00,54.9,50.2,30.00,North,8,5.0,8.0,84,0.00,CLR,SKC,0.00,WeatherDisplay:10.37,2013-09-13 07:10:00,
2013-09-13 03:20:00,54.5,50.0,30.00,North,4,1.0,7.0,85,0.00,CLR,SKC,0.00,WeatherDisplay:10.37,2013-09-13 07:20:00,
2013-09-13 03:40:00,54.3,49.3,30.00,NNE,17,1.0,7.0,83,0.00,CLR,SKC,0.00,WeatherDisplay:10.37,2013-09-13 07:40:00,
2013-09-13 03:50:00,54.5,51.0,30.00,NNW,347,0.0,8.0,88,0.00,CLR,SKC,0.00,WeatherDisplay:10.37,2013-09-13 07:50:00,
2013-09-13 04:00:00,53.7,50.3,30.00,North,5,0.0,8.0,88,0.00,CLR,SKC,0.00,WeatherDisplay:10.37,2013-09-13 08:00:00,
2013-09-13 04:09:00,53.8,50.3,30.00,North,9,1.0,10.0,88,0.00,CLR,SKC,0.00,WeatherDisplay:10.37,2013-09-13 08:09:00,
2013-09-13 04:19:00,53.5,50.1,30.00,North,354,0.0,10.0,88,0.00,CLR,SKC,0.00,WeatherDisplay:10.37,2013-09-13 08:19:00,
2013-09-13 04:29:00,53.7,49.0,30.00,North,351,0.0,6.0,84,0.00,CLR,SKC,0.00,WeatherDisplay:10.37,2013-09-13 08:29:00,
2013-09-13 04:39:00,54.1,50.9,30.00,North,355,0.0,6.0,89,0.00,CLR,SKC,0.00,WeatherDisplay:10.37,2013-09-13 08:39:00,
2013-09-13 04:49:00,53.6,50.4,30.01,North,350,0.0,0.0,89,0.00,CLR,SKC,0.00,WeatherDisplay:10.37,2013-09-13 08:49:00,
2013-09-13 04:59:00,53.2,49.8,30.01,North,356,6.0,8.0,88,0.00,CLR,SKC,0.00,WeatherDisplay:10.37,2013-09-13 08:59:00,
2013-09-13 05:09:00,52.8,49.6,30.02,North,357,0.0,8.0,89,0.00,CLR,SKC,0.00,WeatherDisplay:10.37,2013-09-13 09:09:00,
2013-09-13 05:19:00,53.3,50.1,30.02,NNW,336,1.0,8.0,89,0.00,CLR,SKC,0.00,WeatherDisplay:10.37,2013-09-13 09:19:00,
2013-09-13 05:29:00,52.0,49.2,30.02,North,355,0.0,8.0,90,0.00,CLR,SKC,0.00,WeatherDisplay:10.37,2013-09-13 09:29:00,
2013-09-13 05:39:00,52.9,50.0,30.02,NW,321,0.0,5.0,90,0.00,CLR,SKC,0.00,WeatherDisplay:10.37,2013-09-13 09:39:00,
2013-09-13 05:49:00,51.9,49.0,30.02,NW,305,0.0,0.0,90,0.00,CLR,SKC,0.00,WeatherDisplay:10.37,2013-09-13 09:49:00,
2013-09-13 05:59:00,52.0,49.5,30.03,NW,310,1.0,7.0,91,0.00,CLR,SKC,0.00,WeatherDisplay:10.37,2013-09-13 09:59:00,
2013-09-13 06:09:00,53.3,50.5,30.02,NNW,348,7.0,10.0,90,0.00,CLR,SKC,0.00,WeatherDisplay:10.37,2013-09-13 10:09:00,
2013-09-13 06:19:00,52.5,49.3,30.02,North,1,3.0,10.0,89,0.00,CLR,SKC,0.00,WeatherDisplay:10.37,2013-09-13 10:19:00,
2013-09-13 06:29:00,52.6,48.5,30.02,North,8,0.0,8.0,86,0.00,CLR,SKC,0.00,WeatherDisplay:10.37,2013-09-13 10:29:00,
2013-09-13 06:40:00,51.8,49.6,30.02,NNW,345,0.0,9.0,92,0.00,CLR,SKC,0.00,WeatherDisplay:10.37,2013-09-13 10:40:00,
2013-09-13 06:50:00,50.4,47.6,30.02,NNW,338,3.0,10.0,90,0.00,CLR,SKC,0.00,WeatherDisplay:10.37,2013-09-13 10:50:00,
2013-09-13 07:00:00,51.0,48.8,30.03,NNW,339,0.0,7.0,92,0.00,CLR,SKC,0.00,WeatherDisplay:10.37,2013-09-13 11:00:00,
2013-09-13 07:10:00,51.5,49.2,30.03,NNW,346,0.0,7.0,92,0.00,CLR,SKC,0.00,WeatherDisplay:10.37,2013-09-13 11:10:00,
2013-09-13 07:20:00,50.5,46.8,30.03,North,350,0.0,5.0,87,0.00,CLR,SKC,0.00,WeatherDisplay:10.37,2013-09-13 11:20:00,
2013-09-13 07:30:00,50.9,48.7,30.03,NNW,330,1.0,7.0,92,0.00,CLR,SKC,0.00,WeatherDisplay:10.37,2013-09-13 11:30:00,
2013-09-13 07:40:00,50.6,48.4,30.03,North,359,0.0,9.0,92,0.00,CLR,SKC,0.00,WeatherDisplay:10.37,2013-09-13 11:40:00,
2013-09-13 07:50:00,51.0,48.4,30.04,NNW,337,0.0,7.0,91,0.00,CLR,SKC,0.00,WeatherDisplay:10.37,2013-09-13 11:50:00,
2013-09-13 08:00:00,50.9,48.1,30.04,NNW,341,3.0,8.0,90,0.00,CLR,SKC,0.00,WeatherDisplay:10.37,2013-09-13 12:00:00,
2013-09-13 08:10:00,50.8,47.7,30.04,North,350,7.0,10.0,89,0.00,CLR,SKC,0.00,WeatherDisplay:10.37,2013-09-13 12:10:00,
2013-09-13 08:20:00,50.6,47.8,30.04,NNW,347,3.0,9.0,90,0.00,CLR,SKC,0.00,WeatherDisplay:10.37,2013-09-13 12:20:00,
2013-09-13 08:30:00,51.5,48.6,30.04,NNW,347,6.0,10.0,90,0.00,CLR,SKC,0.00,WeatherDisplay:10.37,2013-09-13 12:30:00,
2013-09-13 08:40:00,51.4,48.6,30.04,NNW,333,1.0,9.0,90,0.00,CLR,SKC,0.00,WeatherDisplay:10.37,2013-09-13 12:40:00,
2013-09-13 08:50:00,50.8,46.5,30.05,NNW,333,3.0,12.0,85,0.00,CLR,SKC,0.00,WeatherDisplay:10.37,2013-09-13 12:50:00,
2013-09-13 09:00:00,51.1,47.7,30.05,North,355,8.0,12.0,88,0.00,CLR,SKC,0.00,WeatherDisplay:10.37,2013-09-13 13:00:00,
2013-09-13 09:10:00,51.5,48.1,30.05,North,4,6.0,12.0,88,0.00,CLR,SKC,0.00,WeatherDisplay:10.37,2013-09-13 13:10:00,
2013-09-13 09:20:00,51.7,49.2,30.05,North,9,0.0,9.0,91,0.00,CLR,SKC,0.00,WeatherDisplay:10.37,2013-09-13 13:20:00,
2013-09-13 09:30:00,51.6,47.9,30.05,North,360,8.0,12.0,87,0.00,CLR,SKC,0.00,WeatherDisplay:10.37,2013-09-13 13:30:00,
2013-09-13 09:40:00,52.8,48.8,30.06,NNE,21,5.0,13.0,86,0.00,CLR,SKC,0.00,WeatherDisplay:10.37,2013-09-13 13:40:00,
2013-09-13 09:50:00,52.4,48.0,30.06,North,9,6.0,13.0,85,0.00,CLR,SKC,0.00,WeatherDisplay:10.37,2013-09-13 13:50:00,
2013-09-13 10:00:00,53.0,48.3,30.06,NNE,15,7.0,13.0,84,0.00,CLR,SKC,0.00,WeatherDisplay:10.37,2013-09-13 14:00:00,
2013-09-13 10:10:00,53.5,49.1,30.06,North,356,0.0,13.0,85,0.00,CLR,SKC,0.00,WeatherDisplay:10.37,2013-09-13 14:10:00,
2013-09-13 10:20:00,54.6,49.5,30.06,NNE,14,8.0,15.0,83,0.00,CLR,SKC,0.00,WeatherDisplay:10.37,2013-09-13 14:20:00,
2013-09-13 10:30:00,54.5,48.5,30.07,North,2,5.0,10.0,80,0.00,CLR,SKC,0.00,WeatherDisplay:10.37,2013-09-13 14:30:00,
2013-09-13 10:40:00,54.7,48.6,30.07,NNE,26,6.0,16.0,80,0.00,CLR,SKC,0.00,WeatherDisplay:10.37,2013-09-13 14:40:00,
2013-09-13 10:50:00,55.3,49.2,30.07,NNE,15,3.0,12.0,80,0.00,CLR,SKC,0.00,WeatherDisplay:10.37,2013-09-13 14:50:00,
2013-09-13 11:00:00,54.9,48.8,30.07,NNE,25,5.0,12.0,80,0.00,CLR,SKC,0.00,WeatherDisplay:10.37,2013-09-13 15:00:00,
2013-09-13 11:10:00,56.1,49.7,30.07,NE,48,2.0,11.0,79,0.00,CLR,SKC,0.00,WeatherDisplay:10.37,2013-09-13 15:10:00,
2013-09-13 11:20:00,54.9,48.1,30.08,NNE,21,7.0,12.0,78,0.00,CLR,SKC,0.00,WeatherDisplay:10.37,2013-09-13 15:20:00,
2013-09-13 11:30:00,54.5,47.8,30.08,NNE,26,7.0,13.0,78,0.00,CLR,SKC,0.00,WeatherDisplay:10.37,2013-09-13 15:30:00,
2013-09-13 11:40:00,55.6,48.5,30.08,NNE,18,6.0,14.0,77,0.00,CLR,SKC,0.00,WeatherDisplay:10.37,2013-09-13 15:40:00,
2013-09-13 11:50:00,54.8,48.1,30.08,NNE,14,6.0,13.0,78,0.00,CLR,SKC,0.00,WeatherDisplay:10.37,2013-09-13 15:50:00,
2013-09-13 12:00:00,56.0,48.9,30.08,NNE,12,6.0,11.0,77,0.00,CLR,SKC,0.00,WeatherDisplay:10.37,2013-09-13 16:00:00,
2013-09-13 12:10:00,55.3,47.9,30.08,North,6,6.0,13.0,76,0.00,CLR,SKC,0.00,WeatherDisplay:10.37,2013-09-13 16:10:00,
2013-09-13 12:20:00,56.3,48.4,30.08,NNE,21,6.0,10.0,75,0.00,CLR,SKC,0.00,WeatherDisplay:10.37,2013-09-13 16:20:00,
2013-09-13 12:30:00,56.4,48.5,30.08,NNE,33,3.0,10.0,75,0.00,CLR,SKC,0.00,WeatherDisplay:10.37,2013-09-13 16:30:00,
2013-09-13 12:40:00,55.9,47.4,30.08,NE,53,7.0,12.0,73,0.00,CLR,SKC,0.00,WeatherDisplay:10.37,2013-09-13 16:40:00,
2013-09-13 12:50:00,56.9,47.2,30.09,NE,35,5.0,12.0,70,0.00,CLR,SKC,0.00,WeatherDisplay:10.37,2013-09-13 16:50:00,
2013-09-13 13:00:00,56.4,46.7,30.09,NE,35,2.0,12.0,70,0.00,CLR,SKC,0.00,WeatherDisplay:10.37,2013-09-13 17:00:00,
2013-09-13 13:10:00,57.3,47.6,30.08,NNE,18,3.0,13.0,70,0.00,CLR,SKC,0.00,WeatherDisplay:10.37,2013-09-13 17:10:00,
2013-09-13 13:20:00,57.4,46.5,30.08,NNE,22,0.0,13.0,67,0.00,CLR,SKC,0.00,WeatherDisplay:10.37,2013-09-13 17:20:00,
2013-09-13 13:30:00,57.8,46.5,30.08,ENE,64,2.0,11.0,66,0.00,CLR,SKC,0.00,WeatherDisplay:10.37,2013-09-13 17:30:00,
2013-09-13 13:40:00,58.8,45.8,30.08,East,81,1.0,12.0,62,0.00,CLR,SKC,0.00,WeatherDisplay:10.37,2013-09-13 17:40:00,
2013-09-13 13:50:00,58.7,47.7,30.08,NE,41,2.0,15.0,67,0.00,CLR,SKC,0.00,WeatherDisplay:10.37,2013-09-13 17:50:00,
2013-09-13 14:00:00,59.8,48.0,30.07,NE,53,2.0,13.0,65,0.00,CLR,SKC,0.00,WeatherDisplay:10.37,2013-09-13 18:00:00,
2013-09-13 14:10:00,58.6,46.8,30.07,NNE,14,3.0,12.0,65,0.00,CLR,SKC,0.00,WeatherDisplay:10.37,2013-09-13 18:10:00,
2013-09-13 14:20:00,60.0,47.8,30.07,NNE,30,2.0,10.0,64,0.00,CLR,SKC,0.00,WeatherDisplay:10.37,2013-09-13 18:20:00,
2013-09-13 14:30:00,60.1,46.6,30.07,North,6,2.0,10.0,61,0.00,CLR,SKC,0.00,WeatherDisplay:10.37,2013-09-13 18:30:00,
2013-09-13 14:40:00,59.5,46.9,30.07,NNW,343,2.0,9.0,63,0.00,CLR,SKC,0.00,WeatherDisplay:10.37,2013-09-13 18:40:00,
2013-09-13 14:50:00,60.6,47.5,30.06,NNE,23,3.0,13.0,62,0.00,CLR,SKC,0.00,WeatherDisplay:10.37,2013-09-13 18:50:00,
2013-09-13 15:00:00,58.5,46.4,30.06,North,10,1.0,10.0,64,0.00,CLR,SKC,0.00,WeatherDisplay:10.37,2013-09-13 19:00:00,
2013-09-13 15:10:00,59.6,46.2,30.06,North,10,8.0,14.0,61,0.00,CLR,SKC,0.00,WeatherDisplay:10.37,2013-09-13 19:10:00,
2013-09-13 15:20:00,59.2,46.6,30.06,North,355,3.0,13.0,63,0.00,CLR,SKC,0.00,WeatherDisplay:10.37,2013-09-13 19:20:00,
2013-09-13 15:30:00,60.1,45.2,30.06,NNW,340,1.0,13.0,58,0.00,CLR,SKC,0.00,WeatherDisplay:10.37,2013-09-13 19:30:00,
2013-09-13 15:40:00,59.4,45.5,30.06,North,354,6.0,12.0,60,0.00,CLR,SKC,0.00,WeatherDisplay:10.37,2013-09-13 19:40:00,
2013-09-13 15:50:00,59.7,47.1,30.06,North,8,2.0,11.0,63,0.00,CLR,SKC,0.00,WeatherDisplay:10.37,2013-09-13 19:50:00,
2013-09-13 16:00:00,59.0,43.8,30.06,North,10,8.0,14.0,57,0.00,CLR,SKC,0.00,WeatherDisplay:10.37,2013-09-13 20:00:00,
2013-09-13 16:10:00,60.6,46.7,30.06,NNW,337,1.0,12.0,60,0.00,CLR,SKC,0.00,WeatherDisplay:10.37,2013-09-13 20:10:00,
2013-09-13 16:20:00,60.0,45.2,30.06,North,349,6.0,13.0,58,0.00,CLR,SKC,0.00,WeatherDisplay:10.37,2013-09-13 20:20:00,
2013-09-13 16:30:00,60.6,45.3,30.06,North,4,7.0,12.0,57,0.00,CLR,SKC,0.00,WeatherDisplay:10.37,2013-09-13 20:30:00,
2013-09-13 16:39:00,60.1,44.3,30.06,North,6,7.0,14.0,56,0.00,CLR,SKC,0.00,WeatherDisplay:10.37,2013-09-13 20:39:00,
2013-09-13 16:49:00,59.5,46.0,30.06,NE,45,1.0,14.0,61,0.00,CLR,SKC,0.00,WeatherDisplay:10.37,2013-09-13 20:49:00,
2013-09-13 17:00:00,60.2,44.9,30.06,North,7,6.0,12.0,57,0.00,CLR,SKC,0.00,WeatherDisplay:10.37,2013-09-13 21:00:00,
2013-09-13 17:09:00,61.5,46.6,30.06,North,7,2.0,9.0,58,0.00,CLR,SKC,0.00,WeatherDisplay:10.37,2013-09-13 21:09:00,
2013-09-13 17:19:00,60.3,43.1,30.07,NNE,23,1.0,14.0,53,0.00,CLR,SKC,0.00,WeatherDisplay:10.37,2013-09-13 21:19:00,
2013-09-13 17:29:00,60.4,45.5,30.07,NNW,327,0.0,12.0,58,0.00,CLR,SKC,0.00,WeatherDisplay:10.37,2013-09-13 21:29:00,
2013-09-13 17:39:00,59.1,44.8,30.07,NNE,17,6.0,12.0,59,0.00,CLR,SKC,0.00,WeatherDisplay:10.37,2013-09-13 21:39:00,
2013-09-13 17:50:00,59.8,46.3,30.07,NNE,23,2.0,14.0,61,0.00,CLR,SKC,0.00,WeatherDisplay:10.37,2013-09-13 21:50:00,
2013-09-13 17:59:00,61.0,46.1,30.07,East,81,1.0,12.0,58,0.00,CLR,SKC,0.00,WeatherDisplay:10.37,2013-09-13 21:59:00,
2013-09-13 18:09:00,59.3,44.5,30.07,NNE,31,2.0,10.0,58,0.00,CLR,SKC,0.00,WeatherDisplay:10.37,2013-09-13 22:09:00,
2013-09-13 18:19:00,60.3,46.3,30.07,North,2,2.0,12.0,60,0.00,CLR,SKC,0.00,WeatherDisplay:10.37,2013-09-13 22:19:00,
2013-09-13 18:29:00,59.7,45.3,30.07,NNE,14,1.0,14.0,59,0.00,CLR,SKC,0.00,WeatherDisplay:10.37,2013-09-13 22:29:00,
2013-09-13 18:40:00,59.9,45.1,30.07,North,5,2.0,12.0,58,0.00,CLR,SKC,0.00,WeatherDisplay:10.37,2013-09-13 22:40:00,
2013-09-13 18:50:00,59.5,43.3,30.08,North,5,3.0,13.0,55,0.00,CLR,SKC,0.00,WeatherDisplay:10.37,2013-09-13 22:50:00,
2013-09-13 19:00:00,58.8,44.0,30.08,NE,39,2.0,10.0,58,0.00,CLR,SKC,0.00,WeatherDisplay:10.37,2013-09-13 23:00:00,
2013-09-13 19:10:00,59.4,45.5,30.08,NNE,15,2.0,10.0,60,0.00,CLR,SKC,0.00,WeatherDisplay:10.37,2013-09-13 23:10:00,
2013-09-13 19:20:00,58.1,45.1,30.08,NNE,15,0.0,6.0,62,0.00,CLR,SKC,0.00,WeatherDisplay:10.37,2013-09-13 23:20:00,
2013-09-13 19:30:00,57.8,42.6,30.09,NNE,14,0.0,7.0,57,0.00,CLR,SKC,0.00,WeatherDisplay:10.37,2013-09-13 23:30:00,
2013-09-13 19:40:00,57.9,46.2,30.09,NNE,25,0.0,5.0,65,0.00,CLR,SKC,0.00,WeatherDisplay:10.37,2013-09-13 23:40:00,
2013-09-13 19:50:00,56.7,45.1,30.09,North,357,0.0,7.0,65,0.00,CLR,SKC,0.00,WeatherDisplay:10.37,2013-09-13 23:50:00,
2013-09-13 20:00:00,57.6,46.3,30.09,North,357,0.0,0.0,66,0.00,CLR,SKC,0.00,WeatherDisplay:10.37,2013-09-14 00:00:00,
2013-09-13 20:10:00,55.7,44.9,30.10,NNE,21,0.0,5.0,67,0.00,CLR,SKC,0.00,WeatherDisplay:10.37,2013-09-14 00:10:00,
2013-09-13 20:20:00,56.2,43.8,30.10,NW,326,0.0,3.0,63,0.00,CLR,SKC,0.00,WeatherDisplay:10.37,2013-09-14 00:20:00,
2013-09-13 20:30:00,55.8,46.2,30.10,NW,307,0.0,0.0,70,0.00,CLR,SKC,0.00,WeatherDisplay:10.37,2013-09-14 00:30:00,
2013-09-13 20:40:00,55.3,46.1,30.11,NW,307,0.0,0.0,71,0.00,CLR,SKC,0.00,WeatherDisplay:10.37,2013-09-14 00:40:00,
2013-09-13 20:50:00,55.0,46.1,30.11,NW,308,0.0,3.0,72,0.00,CLR,SKC,0.00,WeatherDisplay:10.37,2013-09-14 00:50:00,
2013-09-13 21:00:00,54.1,45.6,30.12,NNW,329,0.0,0.0,73,0.00,CLR,SKC,0.00,WeatherDisplay:10.37,2013-09-14 01:00:00,
2013-09-13 21:10:00,53.6,45.2,30.12,NNW,329,0.0,0.0,73,0.00,CLR,SKC,0.00,WeatherDisplay:10.37,2013-09-14 01:10:00,
2013-09-13 21:20:00,53.7,45.6,30.12,NNW,329,0.0,0.0,74,0.00,CLR,SKC,0.00,WeatherDisplay:10.37,2013-09-14 01:20:00,
2013-09-13 21:30:00,53.4,46.0,30.12,NNW,329,0.0,0.0,76,0.00,CLR,SKC,0.00,WeatherDisplay:10.37,2013-09-14 01:30:00,
2013-09-13 21:40:00,52.5,45.2,30.13,NNW,329,0.0,0.0,76,0.00,CLR,SKC,0.00,WeatherDisplay:10.37,2013-09-14 01:40:00,
2013-09-13 21:50:00,52.7,45.7,30.13,NNW,329,0.0,0.0,77,0.00,CLR,SKC,0.00,WeatherDisplay:10.37,2013-09-14 01:50:00,
2013-09-13 22:00:00,52.6,45.9,30.13,NNW,329,0.0,0.0,78,0.00,CLR,SKC,0.00,WeatherDisplay:10.37,2013-09-14 02:00:00,
2013-09-13 22:10:00,52.0,45.7,30.13,NNW,329,0.0,0.0,79,0.00,CLR,SKC,0.00,WeatherDisplay:10.37,2013-09-14 02:10:00,
2013-09-13 22:20:00,51.9,45.6,30.13,NNW,329,0.0,0.0,79,0.00,CLR,SKC,0.00,WeatherDisplay:10.37,2013-09-14 02:20:00,
2013-09-13 22:30:00,51.6,45.3,30.13,NNW,329,0.0,0.0,79,0.00,CLR,SKC,0.00,WeatherDisplay:10.37,2013-09-14 02:30:00,
2013-09-13 22:40:00,52.1,46.1,30.13,NNE,20,0.0,2.0,80,0.00,CLR,SKC,0.00,WeatherDisplay:10.37,2013-09-14 02:40:00,
2013-09-13 22:50:00,51.5,44.5,30.13,North,3,0.0,3.0,77,0.00,CLR,SKC,0.00,WeatherDisplay:10.37,2013-09-14 02:50:00,
2013-09-13 23:00:00,50.9,45.3,30.13,NNE,29,0.0,3.0,81,0.00,CLR,SKC,0.00,WeatherDisplay:10.37,2013-09-14 03:00:00,
2013-09-13 23:10:00,51.3,45.7,30.13,NNE,29,0.0,0.0,81,0.00,CLR,SKC,0.00,WeatherDisplay:10.37,2013-09-14 03:10:00,
2013-09-13 23:20:00,50.7,45.4,30.13,NNE,29,0.0,0.0,82,0.00,CLR,SKC,0.00,WeatherDisplay:10.37,2013-09-14 03:20:00,
2013-09-13 23:30:00,49.7,45.1,30.13,NNE,29,0.0,0.0,84,0.00,CLR,SKC,0.00,WeatherDisplay:10.37,2013-09-14 03:30:00,
2013-09-13 23:40:00,49.5,44.5,30.13,NNE,29,0.0,0.0,83,0.00,CLR,SKC,0.00,WeatherDisplay:10.37,2013-09-14 03:40:00,
2013-09-13 23:50:00,49.7,45.0,30.13,NNE,29,0.0,0.0,84,0.00,CLR,SKC,0.00,WeatherDisplay:10.37,2013-09-14 03:50:00,